Time,TemperatureF,DewpointF,PressureIn,WindDirection,WindDirectionDegrees,WindSpeedMPH,WindSpeedGustMPH,Humidity,HourlyPrecipIn,Conditions,Clouds,dailyrainin,SoftwareType,DateUTC
2013-05-21 00:00:00,58.5,53.3,29.80,SW,214,7.1,9.8,83,0.00,,,0.00,VWS V14.01,2013-05-21 04:00:00,
2013-05-21 00:01:00,58.5,53.3,29.80,West,274,4.0,7.1,83,0.00,,,0.00,VWS V14.01,2013-05-21 04:01:00,
2013-05-21 00:06:00,58.5,53.3,29.80,SSW,212,7.1,8.0,83,0.00,,,0.00,VWS V14.01,2013-05-21 04:06:00,
2013-05-21 00:11:00,58.5,53.3,29.80,SW,224,5.8,8.0,83,0.00,,,0.00,VWS V14.01,2013-05-21 04:11:00,
2013-05-21 00:16:00,58.5,53.3,29.80,WSW,252,4.0,8.0,83,0.00,,,0.00,VWS V14.01,2013-05-21 04:16:00,
2013-05-21 00:21:00,58.5,53.3,29.80,West,261,4.4,8.9,83,0.00,,,0.00,VWS V14.01,2013-05-21 04:21:00,
2013-05-21 00:26:00,58.5,53.3,29.80,SW,217,5.3,8.9,83,0.00,,,0.00,VWS V14.01,2013-05-21 04:26:00,
2013-05-21 00:31:00,58.3,53.2,29.80,WSW,237,5.8,8.9,83,0.00,,,0.00,VWS V14.01,2013-05-21 04:31:00,
2013-05-21 00:36:00,58.3,53.2,29.80,WSW,244,7.1,8.9,83,0.00,,,0.00,VWS V14.01,2013-05-21 04:36:00,
2013-05-21 00:41:00,58.1,53.0,29.80,WSW,243,5.3,8.9,83,0.00,,,0.00,VWS V14.01,2013-05-21 04:41:00,
2013-05-21 00:46:00,58.1,53.0,29.80,WSW,246,5.8,8.9,83,0.00,,,0.00,VWS V14.01,2013-05-21 04:46:00,
2013-05-21 00:51:00,58.3,53.5,29.80,SW,229,4.0,8.9,84,0.00,,,0.00,VWS V14.01,2013-05-21 04:51:00,
2013-05-21 00:56:00,58.1,53.3,29.80,SW,234,5.8,8.9,84,0.00,,,0.00,VWS V14.01,2013-05-21 04:56:00,
2013-05-21 01:00:00,58.5,53.3,29.80,SW,214,7.1,9.8,83,0.00,,,0.00,VWS V15.00,2013-05-21 05:00:00,
2013-05-21 01:01:00,58.1,53.3,29.80,WSW,251,5.3,5.3,84,0.00,,,0.00,VWS V14.01,2013-05-21 05:01:00,
2013-05-21 01:06:00,58.1,53.3,29.77,SW,233,5.8,6.7,84,0.00,,,0.00,VWS V14.01,2013-05-21 05:06:00,
2013-05-21 01:11:00,58.1,53.3,29.77,SW,226,4.9,7.1,84,0.00,,,0.00,VWS V14.01,2013-05-21 05:11:00,
2013-05-21 01:16:00,58.1,53.3,29.77,WSW,239,1.8,7.1,84,0.00,,,0.00,VWS V14.01,2013-05-21 05:16:00,
2013-05-21 01:21:00,58.1,53.3,29.80,West,259,4.4,7.1,84,0.00,,,0.00,VWS V14.01,2013-05-21 05:21:00,
2013-05-21 01:26:00,58.1,53.3,29.80,SW,220,4.0,7.1,84,0.00,,,0.00,VWS V14.01,2013-05-21 05:26:00,
2013-05-21 01:31:00,58.1,53.3,29.80,WSW,248,4.4,7.1,84,0.00,,,0.00,VWS V14.01,2013-05-21 05:31:00,
2013-05-21 01:36:00,57.9,53.1,29.77,SW,231,1.8,7.1,84,0.00,,,0.00,VWS V14.01,2013-05-21 05:36:00,
2013-05-21 01:41:00,57.9,53.1,29.77,West,281,4.0,7.1,84,0.00,,,0.00,VWS V14.01,2013-05-21 05:41:00,
2013-05-21 01:46:00,57.9,53.1,29.77,WSW,247,4.4,7.1,84,0.00,,,0.00,VWS V14.01,2013-05-21 05:46:00,
2013-05-21 01:51:00,57.9,53.1,29.77,West,264,4.4,7.1,84,0.00,,,0.00,VWS V14.01,2013-05-21 05:51:00,
2013-05-21 01:56:00,57.9,53.1,29.77,WSW,244,1.8,7.1,84,0.00,,,0.00,VWS V14.01,2013-05-21 05:56:00,
2013-05-21 02:00:00,58.1,53.3,29.80,WSW,242,4.4,8.9,84,0.00,,,0.00,VWS V15.00,2013-05-21 06:00:00,
2013-05-21 02:01:00,57.9,53.1,29.77,SSW,208,1.8,1.8,84,0.00,,,0.00,VWS V14.01,2013-05-21 06:01:00,
2013-05-21 02:06:00,57.9,53.1,29.77,SSW,208,1.8,1.8,84,0.00,,,0.00,VWS V14.01,2013-05-21 06:06:00,
2013-05-21 02:11:00,57.9,53.1,29.77,SSW,208,4.4,4.4,84,0.00,,,0.00,VWS V14.01,2013-05-21 06:11:00,
2013-05-21 02:16:00,57.9,53.1,29.77,SW,223,4.4,5.8,84,0.00,,,0.00,VWS V14.01,2013-05-21 06:16:00,
2013-05-21 02:21:00,57.9,53.1,29.77,SW,217,4.4,6.7,84,0.00,,,0.00,VWS V14.01,2013-05-21 06:21:00,
2013-05-21 02:26:00,57.9,53.1,29.77,SSW,210,1.8,6.7,84,0.00,,,0.00,VWS V14.01,2013-05-21 06:26:00,
2013-05-21 02:31:00,57.9,53.1,29.77,SSW,193,1.8,6.7,84,0.00,,,0.00,VWS V14.01,2013-05-21 06:31:00,
2013-05-21 02:36:00,57.9,53.1,29.77,SW,223,1.8,6.7,84,0.00,,,0.00,VWS V14.01,2013-05-21 06:36:00,
2013-05-21 02:41:00,57.9,53.1,29.77,SW,215,1.8,6.7,84,0.00,,,0.00,VWS V14.01,2013-05-21 06:41:00,
2013-05-21 02:46:00,57.9,53.1,29.77,WSW,240,4.9,6.7,84,0.00,,,0.00,VWS V14.01,2013-05-21 06:46:00,
2013-05-21 02:51:00,57.9,53.1,29.77,SSW,202,4.4,6.7,84,0.00,,,0.00,VWS V14.01,2013-05-21 06:51:00,
2013-05-21 02:56:00,57.9,53.1,29.77,SSW,207,1.8,6.7,84,0.00,,,0.00,VWS V14.01,2013-05-21 06:56:00,
2013-05-21 03:00:00,57.9,53.1,29.77,SSW,208,1.8,7.1,84,0.00,,,0.00,VWS V15.00,2013-05-21 07:00:00,
2013-05-21 03:01:00,57.9,53.1,29.77,SSW,206,4.0,4.9,84,0.00,,,0.00,VWS V14.01,2013-05-21 07:01:00,
2013-05-21 03:06:00,57.9,53.1,29.77,SSW,197,1.8,4.9,84,0.00,,,0.00,VWS V14.01,2013-05-21 07:06:00,
2013-05-21 03:11:00,57.9,53.1,29.77,South,184,4.0,5.8,84,0.00,,,0.00,VWS V14.01,2013-05-21 07:11:00,
2013-05-21 03:16:00,57.9,53.1,29.77,South,184,1.8,5.8,84,0.00,,,0.00,VWS V14.01,2013-05-21 07:16:00,
2013-05-21 03:21:00,58.1,53.3,29.77,South,184,1.8,5.8,84,0.00,,,0.00,VWS V14.01,2013-05-21 07:21:00,
2013-05-21 03:26:00,58.1,53.3,29.77,WSW,243,1.8,5.8,84,0.00,,,0.00,VWS V14.01,2013-05-21 07:26:00,
2013-05-21 03:31:00,58.1,53.3,29.77,SW,220,4.0,5.8,84,0.00,,,0.00,VWS V14.01,2013-05-21 07:31:00,
2013-05-21 03:36:00,58.1,53.3,29.77,SSW,203,1.8,5.8,84,0.00,,,0.00,VWS V14.01,2013-05-21 07:36:00,
2013-05-21 03:41:00,57.9,53.1,29.77,SSW,203,1.8,5.8,84,0.00,,,0.00,VWS V14.01,2013-05-21 07:41:00,
2013-05-21 03:46:00,57.9,53.1,29.77,SSW,203,1.8,5.8,84,0.00,,,0.00,VWS V14.01,2013-05-21 07:46:00,
2013-05-21 03:51:00,57.9,53.1,29.77,SSW,203,1.8,5.8,84,0.00,,,0.00,VWS V14.01,2013-05-21 07:51:00,
2013-05-21 03:56:00,57.9,53.1,29.77,SSW,203,1.8,5.8,84,0.00,,,0.00,VWS V14.01,2013-05-21 07:56:00,
2013-05-21 04:00:00,57.9,53.1,29.77,SSW,198,4.9,6.7,84,0.00,,,0.00,VWS V15.00,2013-05-21 08:00:00,
2013-05-21 04:01:00,57.9,53.1,29.77,SSW,203,1.8,1.8,84,0.00,,,0.00,VWS V14.01,2013-05-21 08:01:00,
2013-05-21 04:06:00,57.9,53.1,29.74,SSW,203,1.8,1.8,84,0.00,,,0.00,VWS V14.01,2013-05-21 08:06:00,
2013-05-21 04:11:00,57.7,53.0,29.74,SSW,203,1.8,1.8,84,0.00,,,0.00,VWS V14.01,2013-05-21 08:11:00,
2013-05-21 04:16:00,57.7,53.0,29.74,SSW,203,1.8,1.8,84,0.00,,,0.00,VWS V14.01,2013-05-21 08:16:00,
2013-05-21 04:21:00,57.7,53.0,29.74,SSW,202,1.8,1.8,84,0.00,,,0.00,VWS V14.01,2013-05-21 08:21:00,
2013-05-21 04:26:00,57.7,53.3,29.74,SSW,203,1.8,1.8,85,0.00,,,0.00,VWS V14.01,2013-05-21 08:26:00,
2013-05-21 04:31:00,57.7,53.3,29.74,SSW,203,1.8,1.8,85,0.00,,,0.00,VWS V14.01,2013-05-21 08:31:00,
2013-05-21 04:36:00,57.7,53.3,29.74,SSW,203,1.8,1.8,85,0.00,,,0.00,VWS V14.01,2013-05-21 08:36:00,
2013-05-21 04:41:00,57.7,53.3,29.74,SSW,203,1.8,1.8,85,0.00,,,0.00,VWS V14.01,2013-05-21 08:41:00,
2013-05-21 04:46:00,57.7,53.3,29.74,SSW,203,1.8,1.8,85,0.00,,,0.00,VWS V14.01,2013-05-21 08:46:00,
2013-05-21 04:51:00,57.7,53.3,29.74,SSW,203,1.8,1.8,85,0.00,,,0.00,VWS V14.01,2013-05-21 08:51:00,
2013-05-21 04:56:00,57.7,53.3,29.74,SSW,203,1.8,1.8,85,0.00,,,0.00,VWS V14.01,2013-05-21 08:56:00,
2013-05-21 05:00:00,57.9,53.1,29.77,SSW,203,1.8,5.8,84,0.00,,,0.00,VWS V15.00,2013-05-21 09:00:00,
2013-05-21 05:01:00,57.7,53.3,29.74,SSW,203,1.8,1.8,85,0.00,,,0.00,VWS V14.01,2013-05-21 09:01:00,
2013-05-21 05:06:00,57.7,53.3,29.74,SSW,203,1.8,5.3,85,0.00,,,0.00,VWS V14.01,2013-05-21 09:06:00,
2013-05-21 05:11:00,57.9,53.4,29.74,SSW,203,1.8,5.3,85,0.00,,,0.00,VWS V14.01,2013-05-21 09:11:00,
2013-05-21 05:16:00,57.9,53.4,29.74,SSW,203,1.8,5.3,85,0.00,,,0.00,VWS V14.01,2013-05-21 09:16:00,
2013-05-21 05:21:00,57.9,53.4,29.77,WNW,288,4.9,5.3,85,0.00,,,0.00,VWS V14.01,2013-05-21 09:21:00,
2013-05-21 05:26:00,57.9,53.4,29.77,West,261,1.8,5.3,85,0.00,,,0.00,VWS V14.01,2013-05-21 09:26:00,
2013-05-21 05:31:00,57.9,53.4,29.77,West,265,1.8,5.3,85,0.00,,,0.00,VWS V14.01,2013-05-21 09:31:00,
2013-05-21 05:36:00,57.9,53.4,29.77,WNW,298,4.4,5.3,85,0.00,,,0.00,VWS V14.01,2013-05-21 09:36:00,
2013-05-21 05:41:00,57.9,53.4,29.77,WNW,298,4.9,5.3,85,0.00,,,0.00,VWS V14.01,2013-05-21 09:41:00,
2013-05-21 05:46:00,57.9,53.4,29.77,WSW,244,1.8,5.3,85,0.00,,,0.00,VWS V14.01,2013-05-21 09:46:00,
2013-05-21 05:51:00,57.9,53.4,29.77,West,281,1.8,5.3,85,0.00,,,0.00,VWS V14.01,2013-05-21 09:51:00,
2013-05-21 05:56:00,57.9,53.4,29.77,West,281,4.4,5.3,85,0.00,,,0.00,VWS V14.01,2013-05-21 09:56:00,
2013-05-21 06:00:00,57.7,53.3,29.74,SSW,203,1.8,4.4,85,0.00,,,0.00,VWS V15.00,2013-05-21 10:00:00,
2013-05-21 06:01:00,57.9,53.4,29.77,West,281,4.4,5.3,85,0.00,,,0.00,VWS V14.01,2013-05-21 10:01:00,
2013-05-21 06:06:00,57.9,53.4,29.80,SW,226,4.0,5.8,85,0.00,,,0.00,VWS V14.01,2013-05-21 10:06:00,
2013-05-21 06:11:00,57.9,53.8,29.80,WNW,296,1.8,5.8,86,0.00,,,0.00,VWS V14.01,2013-05-21 10:11:00,
2013-05-21 06:16:00,57.9,53.8,29.80,West,265,1.8,5.8,86,0.00,,,0.00,VWS V14.01,2013-05-21 10:16:00,
2013-05-21 06:21:00,57.9,53.8,29.77,WSW,253,4.4,5.8,86,0.00,,,0.00,VWS V14.01,2013-05-21 10:21:00,
2013-05-21 06:26:00,58.1,53.9,29.77,WSW,253,1.8,5.8,86,0.00,,,0.00,VWS V14.01,2013-05-21 10:26:00,
2013-05-21 06:31:00,58.3,54.1,29.77,WSW,253,4.4,5.8,86,0.00,,,0.00,VWS V14.01,2013-05-21 10:31:00,
2013-05-21 06:36:00,58.5,54.3,29.77,WSW,253,1.8,5.8,86,0.00,,,0.00,VWS V14.01,2013-05-21 10:36:00,
2013-05-21 06:41:00,58.6,54.5,29.77,WSW,253,1.8,5.8,86,0.00,,,0.00,VWS V14.01,2013-05-21 10:41:00,
2013-05-21 06:46:00,58.8,54.7,29.77,WSW,253,1.8,5.8,86,0.00,,,0.00,VWS V14.01,2013-05-21 10:46:00,
2013-05-21 06:51:00,59.2,55.0,29.77,WSW,253,1.8,5.8,86,0.00,,,0.00,VWS V14.01,2013-05-21 10:51:00,
2013-05-21 06:56:00,59.4,55.2,29.77,WSW,253,1.8,5.8,86,0.00,,,0.00,VWS V14.01,2013-05-21 10:56:00,
2013-05-21 07:00:00,57.9,53.4,29.77,West,281,4.0,5.3,85,0.00,,,0.00,VWS V15.00,2013-05-21 11:00:00,
2013-05-21 07:01:00,59.4,55.2,29.77,WSW,253,4.4,4.4,86,0.00,,,0.00,VWS V14.01,2013-05-21 11:01:00,
2013-05-21 07:06:00,59.5,55.3,29.77,WSW,253,1.8,4.4,86,0.00,,,0.00,VWS V14.01,2013-05-21 11:06:00,
2013-05-21 07:11:00,59.7,55.5,29.77,WSW,253,1.8,4.9,86,0.00,,,0.00,VWS V14.01,2013-05-21 11:11:00,
2013-05-21 07:16:00,59.9,55.7,29.77,WSW,246,4.0,4.9,86,0.00,,,0.00,VWS V14.01,2013-05-21 11:16:00,
2013-05-21 07:21:00,59.7,55.2,29.80,West,277,4.9,5.3,85,0.00,,,0.00,VWS V14.01,2013-05-21 11:21:00,
2013-05-21 07:26:00,59.7,54.9,29.80,WSW,243,1.8,5.3,84,0.00,,,0.00,VWS V14.01,2013-05-21 11:26:00,
2013-05-21 07:31:00,59.7,55.2,29.80,WSW,244,4.4,5.3,85,0.00,,,0.00,VWS V14.01,2013-05-21 11:31:00,
2013-05-21 07:36:00,59.9,55.4,29.80,SW,225,4.9,5.8,85,0.00,,,0.00,VWS V14.01,2013-05-21 11:36:00,
2013-05-21 07:41:00,60.1,55.2,29.80,WNW,289,1.8,5.8,84,0.00,,,0.00,VWS V14.01,2013-05-21 11:41:00,
2013-05-21 07:46:00,60.1,55.2,29.80,SSW,202,1.8,5.8,84,0.00,,,0.00,VWS V14.01,2013-05-21 11:46:00,
2013-05-21 07:51:00,60.3,55.4,29.80,SSW,199,1.8,5.8,84,0.00,,,0.00,VWS V14.01,2013-05-21 11:51:00,
2013-05-21 07:56:00,60.6,55.8,29.80,SSW,202,4.0,5.8,84,0.00,,,0.00,VWS V14.01,2013-05-21 11:56:00,
2013-05-21 08:00:00,59.4,55.2,29.77,WSW,253,1.8,5.8,86,0.00,,,0.00,VWS V15.00,2013-05-21 12:00:00,
2013-05-21 08:01:00,61.0,56.1,29.80,SSW,202,1.8,1.8,84,0.00,,,0.00,VWS V14.01,2013-05-21 12:01:00,
2013-05-21 08:05:00,61.3,56.5,29.80,SSW,202,1.8,1.8,84,0.00,,,0.00,VWS V14.01,2013-05-21 12:05:00,
2013-05-21 08:11:00,61.9,57.0,29.80,SSW,202,4.4,4.4,84,0.00,,,0.00,VWS V14.01,2013-05-21 12:11:00,
2013-05-21 08:16:00,62.4,57.2,29.80,SE,143,4.4,5.3,83,0.00,,,0.00,VWS V14.01,2013-05-21 12:16:00,
2013-05-21 08:21:00,63.0,57.7,29.77,SE,143,1.8,5.3,83,0.00,,,0.00,VWS V14.01,2013-05-21 12:21:00,
2013-05-21 08:26:00,63.5,57.9,29.77,SE,143,5.8,5.8,82,0.00,,,0.00,VWS V14.01,2013-05-21 12:26:00,
2013-05-21 08:31:00,64.0,58.4,29.77,ESE,120,4.4,5.8,82,0.00,,,0.00,VWS V14.01,2013-05-21 12:31:00,
2013-05-21 08:36:00,64.6,58.6,29.77,ESE,120,1.8,5.8,81,0.00,,,0.00,VWS V14.01,2013-05-21 12:36:00,
2013-05-21 08:41:00,65.3,59.0,29.77,ESE,120,1.8,5.8,80,0.00,,,0.00,VWS V14.01,2013-05-21 12:41:00,
2013-05-21 08:46:00,65.8,59.5,29.77,ESE,120,5.3,5.8,80,0.00,,,0.00,VWS V14.01,2013-05-21 12:46:00,
2013-05-21 08:51:00,66.4,59.7,29.77,SE,129,1.8,5.8,79,0.00,,,0.00,VWS V14.01,2013-05-21 12:51:00,
2013-05-21 08:55:00,66.9,59.8,29.77,SE,131,5.8,5.8,78,0.00,,,0.00,VWS V14.01,2013-05-21 12:55:00,
2013-05-21 09:00:00,67.3,59.8,29.77,SE,129,5.8,5.8,77,0.00,,,0.00,VWS V14.01,2013-05-21 13:00:00,
2013-05-21 09:05:00,67.8,60.0,29.77,South,170,5.3,6.7,76,0.00,,,0.00,VWS V14.01,2013-05-21 13:05:00,
2013-05-21 09:10:00,68.2,60.3,29.77,SSW,196,4.0,6.7,76,0.00,,,0.00,VWS V14.01,2013-05-21 13:10:00,
2013-05-21 09:15:00,68.2,58.0,29.77,WNW,293,4.4,7.1,70,0.00,,,0.00,VWS V14.01,2013-05-21 13:15:00,
2013-05-21 09:20:00,67.3,56.0,29.77,WNW,292,4.9,7.1,67,0.00,,,0.00,VWS V14.01,2013-05-21 13:20:00,
2013-05-21 09:25:00,66.7,54.2,29.77,WNW,290,5.8,7.1,64,0.00,,,0.00,VWS V14.01,2013-05-21 13:25:00,
2013-05-21 09:30:00,66.0,50.8,29.77,WNW,299,5.8,7.1,58,0.00,,,0.00,VWS V14.01,2013-05-21 13:30:00,
2013-05-21 09:35:00,65.5,49.9,29.77,WNW,289,4.9,7.6,57,0.00,,,0.00,VWS V14.01,2013-05-21 13:35:00,
2013-05-21 09:40:00,65.5,50.8,29.77,WNW,292,4.9,7.6,59,0.00,,,0.00,VWS V14.01,2013-05-21 13:40:00,
2013-05-21 09:45:00,65.3,50.6,29.77,West,267,4.4,7.6,59,0.00,,,0.00,VWS V14.01,2013-05-21 13:45:00,
2013-05-21 09:50:00,65.7,51.9,29.77,West,263,4.9,7.6,61,0.00,,,0.00,VWS V14.01,2013-05-21 13:50:00,
2013-05-21 09:55:00,66.0,51.3,29.77,WNW,285,5.8,8.0,59,0.00,,,0.00,VWS V14.01,2013-05-21 13:55:00,
2013-05-21 10:00:00,66.0,50.8,29.77,WNW,297,6.7,7.1,58,0.00,,,0.00,VWS V14.01,2013-05-21 14:00:00,
2013-05-21 10:05:00,66.0,50.8,29.77,WSW,244,6.7,7.6,58,0.00,,,0.00,VWS V14.01,2013-05-21 14:05:00,
2013-05-21 10:10:00,66.2,50.1,29.77,West,273,7.6,8.0,56,0.00,,,0.00,VWS V14.01,2013-05-21 14:10:00,
2013-05-21 10:15:00,66.2,50.1,29.77,West,267,5.3,9.4,56,0.00,,,0.00,VWS V14.01,2013-05-21 14:15:00,
2013-05-21 10:20:00,66.4,50.2,29.77,West,266,8.0,9.4,56,0.00,,,0.00,VWS V14.01,2013-05-21 14:20:00,
2013-05-21 10:25:00,66.7,50.1,29.77,WNW,302,7.1,9.4,55,0.00,,,0.00,VWS V14.01,2013-05-21 14:25:00,
2013-05-21 10:30:00,66.7,48.1,29.77,WNW,293,5.8,9.4,51,0.00,,,0.00,VWS V14.01,2013-05-21 14:30:00,
2013-05-21 10:35:00,66.7,47.5,29.77,WNW,293,7.1,9.4,50,0.00,,,0.00,VWS V14.01,2013-05-21 14:35:00,
2013-05-21 10:41:00,66.9,47.7,29.77,West,281,4.9,9.4,50,0.00,,,0.00,VWS V14.01,2013-05-21 14:41:00,
2013-05-21 10:46:00,67.3,47.5,29.77,West,278,4.9,9.4,49,0.00,,,0.00,VWS V14.01,2013-05-21 14:46:00,
2013-05-21 10:51:00,67.5,47.1,29.77,West,268,7.6,9.4,48,0.00,,,0.00,VWS V14.01,2013-05-21 14:51:00,
2013-05-21 10:56:00,67.5,46.5,29.77,SW,230,4.9,9.4,47,0.00,,,0.00,VWS V14.01,2013-05-21 14:56:00,
2013-05-21 11:00:00,66.0,50.8,29.77,WNW,283,4.9,8.0,58,0.00,,,0.00,VWS V15.00,2013-05-21 15:00:00,
2013-05-21 11:01:00,67.5,47.1,29.77,West,267,5.3,5.8,48,0.00,,,0.00,VWS V14.01,2013-05-21 15:01:00,
2013-05-21 11:06:00,67.6,46.7,29.77,WSW,256,4.4,8.0,47,0.00,,,0.00,VWS V14.01,2013-05-21 15:06:00,
2013-05-21 11:11:00,68.2,46.6,29.77,West,273,4.9,8.0,46,0.00,,,0.00,VWS V14.01,2013-05-21 15:11:00,
2013-05-21 11:16:00,68.4,45.0,29.77,WNW,287,6.2,8.0,43,0.00,,,0.00,VWS V14.01,2013-05-21 15:16:00,
2013-05-21 11:21:00,68.0,44.7,29.77,WNW,287,4.9,8.0,43,0.00,,,0.00,VWS V14.01,2013-05-21 15:21:00,
2013-05-21 11:26:00,68.2,44.9,29.77,WNW,286,7.1,8.0,43,0.00,,,0.00,VWS V14.01,2013-05-21 15:26:00,
2013-05-21 11:31:00,68.5,45.2,29.77,WNW,286,4.4,8.0,43,0.00,,,0.00,VWS V14.01,2013-05-21 15:31:00,
2013-05-21 11:36:00,69.3,45.2,29.74,WNW,288,4.4,8.0,42,0.00,,,0.00,VWS V14.01,2013-05-21 15:36:00,
2013-05-21 11:41:00,69.4,44.1,29.74,WNW,295,5.8,8.0,40,0.00,,,0.00,VWS V14.01,2013-05-21 15:41:00,
2013-05-21 11:46:00,69.4,44.1,29.74,West,265,4.9,8.0,40,0.00,,,0.00,VWS V14.01,2013-05-21 15:46:00,
2013-05-21 11:51:00,69.1,43.8,29.74,WNW,285,6.7,8.0,40,0.00,,,0.00,VWS V14.01,2013-05-21 15:51:00,
2013-05-21 11:56:00,68.5,45.2,29.74,WNW,286,4.4,8.0,43,0.00,,,0.00,VWS V14.01,2013-05-21 15:56:00,
2013-05-21 12:00:00,67.5,47.1,29.77,West,272,4.9,9.4,48,0.00,,,0.00,VWS V15.00,2013-05-21 16:00:00,
2013-05-21 12:01:00,68.4,45.0,29.74,WSW,242,5.3,5.3,43,0.00,,,0.00,VWS V14.01,2013-05-21 16:01:00,
2013-05-21 12:06:00,68.7,45.3,29.74,WNW,298,4.9,5.8,43,0.00,,,0.00,VWS V14.01,2013-05-21 16:06:00,
2013-05-21 12:11:00,68.9,45.5,29.74,West,266,4.4,7.6,43,0.00,,,0.00,VWS V14.01,2013-05-21 16:11:00,
2013-05-21 12:16:00,69.3,45.2,29.74,West,265,4.4,7.6,42,0.00,,,0.00,VWS V14.01,2013-05-21 16:16:00,
2013-05-21 12:21:00,69.3,45.2,29.74,WNW,282,5.3,7.6,42,0.00,,,0.00,VWS V14.01,2013-05-21 16:21:00,
2013-05-21 12:26:00,69.4,46.0,29.74,WNW,288,7.6,7.6,43,0.00,,,0.00,VWS V14.01,2013-05-21 16:26:00,
2013-05-21 12:31:00,69.4,46.0,29.74,SW,227,5.3,8.5,43,0.00,,,0.00,VWS V14.01,2013-05-21 16:31:00,
2013-05-21 12:36:00,70.0,46.5,29.74,WNW,284,6.7,8.5,43,0.00,,,0.00,VWS V14.01,2013-05-21 16:36:00,
2013-05-21 12:41:00,70.2,44.7,29.74,WSW,244,6.7,8.5,40,0.00,,,0.00,VWS V14.01,2013-05-21 16:41:00,
2013-05-21 12:46:00,70.2,44.7,29.74,WNW,283,5.3,8.5,40,0.00,,,0.00,VWS V14.01,2013-05-21 16:46:00,
2013-05-21 12:51:00,69.8,44.4,29.74,West,265,5.8,9.4,40,0.00,,,0.00,VWS V14.01,2013-05-21 16:51:00,
2013-05-21 12:56:00,69.6,44.2,29.74,West,268,5.3,9.8,40,0.00,,,0.00,VWS V14.01,2013-05-21 16:56:00,
2013-05-21 13:00:00,68.5,45.2,29.74,West,261,5.3,8.0,43,0.00,,,0.00,VWS V15.00,2013-05-21 17:00:00,
2013-05-21 13:01:00,69.4,43.4,29.74,West,280,5.8,5.8,39,0.00,,,0.00,VWS V14.01,2013-05-21 17:01:00,
2013-05-21 13:06:00,69.3,43.9,29.74,SW,236,5.3,7.6,40,0.00,,,0.00,VWS V14.01,2013-05-21 17:06:00,
2013-05-21 13:11:00,69.4,44.7,29.74,WSW,239,7.1,7.6,41,0.00,,,0.00,VWS V14.01,2013-05-21 17:11:00,
2013-05-21 13:16:00,69.8,44.4,29.74,WNW,291,5.8,7.6,40,0.00,,,0.00,VWS V14.01,2013-05-21 17:16:00,
2013-05-21 13:21:00,70.0,43.2,29.74,WNW,290,5.8,7.6,38,0.00,,,0.00,VWS V14.01,2013-05-21 17:21:00,
2013-05-21 13:26:00,70.0,43.2,29.74,WNW,290,6.2,8.0,38,0.00,,,0.00,VWS V14.01,2013-05-21 17:26:00,
2013-05-21 13:31:00,70.3,44.2,29.74,West,272,5.8,8.0,39,0.00,,,0.00,VWS V14.01,2013-05-21 17:31:00,
2013-05-21 13:36:00,70.7,44.5,29.71,WSW,248,6.7,8.0,39,0.00,,,0.00,VWS V14.01,2013-05-21 17:36:00,
2013-05-21 13:41:00,71.1,44.2,29.71,WNW,293,5.8,8.0,38,0.00,,,0.00,VWS V14.01,2013-05-21 17:41:00,
2013-05-21 13:46:00,71.2,43.7,29.71,SW,225,7.6,8.5,37,0.00,,,0.00,VWS V14.01,2013-05-21 17:46:00,
2013-05-21 13:51:00,71.2,42.9,29.71,West,261,7.6,9.4,36,0.00,,,0.00,VWS V14.01,2013-05-21 17:51:00,
2013-05-21 13:56:00,70.9,43.3,29.71,WNW,282,5.8,9.4,37,0.00,,,0.00,VWS V14.01,2013-05-21 17:56:00,
2013-05-21 14:00:00,69.4,43.4,29.74,WNW,293,4.9,9.8,39,0.00,,,0.00,VWS V15.00,2013-05-21 18:00:00,
2013-05-21 14:01:00,70.9,43.3,29.71,West,259,5.3,5.8,37,0.00,,,0.00,VWS V14.01,2013-05-21 18:01:00,
2013-05-21 14:06:00,71.1,44.2,29.71,West,265,7.6,7.6,38,0.00,,,0.00,VWS V14.01,2013-05-21 18:06:00,
2013-05-21 14:11:00,70.9,43.3,29.71,West,266,6.7,8.0,37,0.00,,,0.00,VWS V14.01,2013-05-21 18:11:00,
2013-05-21 14:16:00,70.5,43.0,29.71,WSW,252,6.7,8.0,37,0.00,,,0.00,VWS V14.01,2013-05-21 18:16:00,
2013-05-21 14:21:00,70.3,43.5,29.71,WSW,238,7.6,8.0,38,0.00,,,0.00,VWS V14.01,2013-05-21 18:21:00,
2013-05-21 14:26:00,70.5,43.7,29.71,WSW,251,5.8,9.8,38,0.00,,,0.00,VWS V14.01,2013-05-21 18:26:00,
2013-05-21 14:31:00,71.2,43.7,29.71,WNW,296,7.1,9.8,37,0.00,,,0.00,VWS V14.01,2013-05-21 18:31:00,
2013-05-21 14:35:00,71.6,42.5,29.71,WNW,301,7.6,9.8,35,0.00,,,0.00,VWS V14.01,2013-05-21 18:35:00,
2013-05-21 14:40:00,71.6,41.8,29.71,WNW,299,5.8,9.8,34,0.00,,,0.00,VWS V14.01,2013-05-21 18:40:00,
2013-05-21 14:45:00,70.7,42.5,29.71,WNW,293,6.2,9.8,36,0.00,,,0.00,VWS V14.01,2013-05-21 18:45:00,
2013-05-21 14:50:00,70.5,43.0,29.71,West,268,5.3,9.8,37,0.00,,,0.00,VWS V14.01,2013-05-21 18:50:00,
2013-05-21 14:55:00,68.4,46.2,29.71,SW,219,4.9,9.8,45,0.00,,,0.00,VWS V14.01,2013-05-21 18:55:00,
2013-05-21 15:00:00,70.9,43.3,29.71,West,278,5.3,9.4,37,0.00,,,0.00,VWS V15.00,2013-05-21 19:00:00,
2013-05-21 15:01:00,66.7,49.1,29.71,West,264,8.0,8.0,53,0.00,,,0.00,VWS V14.01,2013-05-21 19:01:00,
2013-05-21 15:06:00,66.4,52.1,29.71,NW,306,5.8,8.0,60,0.00,,,0.00,VWS V14.01,2013-05-21 19:06:00,
2013-05-21 15:11:00,66.2,52.4,29.71,WNW,294,5.8,10.9,61,0.00,,,0.00,VWS V14.01,2013-05-21 19:11:00,
2013-05-21 15:16:00,66.7,54.2,29.71,SW,219,9.4,10.9,64,0.00,,,0.00,VWS V14.01,2013-05-21 19:16:00,
2013-05-21 15:20:00,67.5,54.0,29.71,WSW,244,6.7,10.9,62,0.00,,,0.00,VWS V14.01,2013-05-21 19:20:00,
2013-05-21 15:25:00,68.2,52.9,29.71,WSW,258,8.0,10.9,58,0.00,,,0.00,VWS V14.01,2013-05-21 19:25:00,
2013-05-21 15:30:00,68.4,50.1,29.71,WSW,248,7.1,10.9,52,0.00,,,0.00,VWS V14.01,2013-05-21 19:30:00,
2013-05-21 15:35:00,69.1,51.8,29.71,SW,231,7.1,10.9,54,0.00,,,0.00,VWS V14.01,2013-05-21 19:35:00,
2013-05-21 15:40:00,69.4,50.0,29.71,WSW,246,5.8,10.9,50,0.00,,,0.00,VWS V14.01,2013-05-21 19:40:00,
2013-05-21 15:45:00,69.4,50.0,29.71,SSW,209,8.0,10.9,50,0.00,,,0.00,VWS V14.01,2013-05-21 19:45:00,
2013-05-21 15:50:00,69.4,49.5,29.71,West,271,6.2,10.9,49,0.00,,,0.00,VWS V14.01,2013-05-21 19:50:00,
2013-05-21 15:55:00,69.6,49.6,29.71,West,266,4.9,10.9,49,0.00,,,0.00,VWS V14.01,2013-05-21 19:55:00,
2013-05-21 16:00:00,69.1,48.6,29.71,SSW,211,5.3,7.6,48,0.00,,,0.00,VWS V14.01,2013-05-21 20:00:00,
2013-05-21 16:05:00,68.7,48.8,29.71,SSW,204,5.8,7.6,49,0.00,,,0.00,VWS V14.01,2013-05-21 20:05:00,
2013-05-21 16:10:00,68.4,48.5,29.71,WNW,284,5.3,10.0,49,0.00,,,0.00,VWS V14.01,2013-05-21 20:10:00,
2013-05-21 16:15:00,67.8,46.9,29.71,SW,214,8.0,10.0,47,0.00,,,0.00,VWS V14.01,2013-05-21 20:15:00,
2013-05-21 16:20:00,67.8,48.0,29.71,West,260,4.9,10.0,49,0.00,,,0.00,VWS V14.01,2013-05-21 20:20:00,
2013-05-21 16:25:00,67.5,47.1,29.71,SW,231,4.9,10.0,48,0.00,,,0.00,VWS V14.01,2013-05-21 20:25:00,
2013-05-21 16:30:00,67.1,47.3,29.71,West,272,4.4,10.0,49,0.00,,,0.00,VWS V14.01,2013-05-21 20:30:00,
2013-05-21 16:35:00,66.7,47.5,29.71,SW,227,1.8,10.0,50,0.00,,,0.00,VWS V14.01,2013-05-21 20:35:00,
2013-05-21 16:40:00,66.2,47.0,29.71,WNW,295,4.4,10.0,50,0.00,,,0.00,VWS V14.01,2013-05-21 20:40:00,
2013-05-21 16:45:00,65.1,47.1,29.71,NW,324,5.3,10.0,52,0.00,,,0.00,VWS V14.01,2013-05-21 20:45:00,
2013-05-21 16:50:00,64.2,47.2,29.71,WNW,295,7.1,10.0,54,0.00,,,0.00,VWS V14.01,2013-05-21 20:50:00,
2013-05-21 16:55:00,63.0,47.0,29.71,WNW,291,4.9,10.0,56,0.00,,,0.00,VWS V14.01,2013-05-21 20:55:00,
2013-05-21 17:00:00,62.2,48.2,29.71,NNW,328,5.3,5.8,60,0.00,,,0.00,VWS V14.01,2013-05-21 21:00:00,
2013-05-21 17:05:00,61.9,48.7,29.71,West,276,4.4,5.8,62,0.00,,,0.00,VWS V14.01,2013-05-21 21:05:00,
2013-05-21 17:10:00,61.9,50.0,29.71,WNW,284,4.4,5.8,65,0.00,,,0.00,VWS V14.01,2013-05-21 21:10:00,
2013-05-21 17:15:00,62.2,50.8,29.71,WNW,283,4.9,5.8,66,0.00,,,0.00,VWS V14.01,2013-05-21 21:15:00,
2013-05-21 17:20:00,63.0,51.8,29.71,WSW,255,4.9,5.8,67,0.00,,,0.00,VWS V14.01,2013-05-21 21:20:00,
2013-05-21 17:25:00,63.7,52.9,29.71,NW,304,5.8,8.0,68,0.00,,,0.00,VWS V14.01,2013-05-21 21:25:00,
2013-05-21 17:30:00,63.3,51.4,29.71,WNW,294,6.7,8.0,65,0.00,,,0.00,VWS V14.01,2013-05-21 21:30:00,
2013-05-21 17:35:00,62.8,51.3,29.71,WNW,291,4.0,8.0,66,0.00,,,0.00,VWS V14.01,2013-05-21 21:35:00,
2013-05-21 17:40:00,62.6,51.1,29.71,WNW,291,4.4,8.0,66,0.00,,,0.00,VWS V14.01,2013-05-21 21:40:00,
2013-05-21 17:45:00,62.4,51.3,29.71,WNW,291,1.8,8.0,67,0.00,,,0.00,VWS V14.01,2013-05-21 21:45:00,
2013-05-21 17:50:00,62.2,51.6,29.71,WNW,291,4.4,8.0,68,0.00,,,0.00,VWS V14.01,2013-05-21 21:50:00,
2013-05-21 17:55:00,61.7,51.0,29.71,NNW,346,9.4,9.4,68,0.00,,,0.00,VWS V14.01,2013-05-21 21:55:00,
2013-05-21 18:00:00,61.3,50.7,29.71,North,353,1.8,9.4,68,0.00,,,0.00,VWS V14.01,2013-05-21 22:00:00,
2013-05-21 18:05:00,61.9,52.0,29.71,ESE,107,1.8,9.4,70,0.00,,,0.00,VWS V14.01,2013-05-21 22:05:00,
2013-05-21 18:10:00,62.4,52.5,29.71,ENE,68,4.0,9.4,70,0.00,,,0.00,VWS V14.01,2013-05-21 22:10:00,
2013-05-21 18:16:00,62.6,52.3,29.71,NW,313,4.0,9.4,69,0.00,,,0.00,VWS V14.01,2013-05-21 22:16:00,
2013-05-21 18:21:00,62.6,52.3,29.74,North,357,4.4,9.4,69,0.00,,,0.00,VWS V14.01,2013-05-21 22:21:00,
2013-05-21 18:26:00,62.6,51.9,29.74,North,353,9.8,9.8,68,0.00,,,0.00,VWS V14.01,2013-05-21 22:26:00,
2013-05-21 18:31:00,62.2,50.8,29.74,East,97,1.8,10.9,66,0.00,,,0.00,VWS V14.01,2013-05-21 22:31:00,
2013-05-21 18:36:00,61.9,50.4,29.74,SE,134,5.8,10.9,66,0.00,,,0.00,VWS V14.01,2013-05-21 22:36:00,
2013-05-21 18:41:00,61.7,49.8,29.74,NNE,29,5.3,11.4,65,0.00,,,0.00,VWS V14.01,2013-05-21 22:41:00,
2013-05-21 18:46:00,61.5,49.7,29.74,NNE,21,5.3,11.4,65,0.00,,,0.00,VWS V14.01,2013-05-21 22:46:00,
2013-05-21 18:51:00,61.3,49.9,29.74,ESE,102,4.9,11.4,66,0.00,,,0.00,VWS V14.01,2013-05-21 22:51:00,
2013-05-21 18:56:00,61.3,49.9,29.74,NE,35,6.7,11.4,66,0.00,,,0.00,VWS V14.01,2013-05-21 22:56:00,
2013-05-21 19:00:00,61.2,49.7,29.74,ENE,71,5.3,11.4,66,0.00,,SKC,0.00,VWS V15.00,2013-05-21 23:00:00,
2013-05-21 19:01:00,61.2,49.7,29.74,ENE,58,6.7,6.7,66,0.00,,,0.00,VWS V14.01,2013-05-21 23:01:00,
2013-05-21 19:06:00,61.0,50.0,29.74,ENE,60,7.1,8.0,67,0.00,,,0.00,VWS V14.01,2013-05-21 23:06:00,
2013-05-21 19:11:00,61.0,50.0,29.74,ENE,71,4.9,9.8,67,0.00,,,0.00,VWS V14.01,2013-05-21 23:11:00,
2013-05-21 19:16:00,60.6,49.6,29.74,North,9,6.2,10.5,67,0.00,,,0.00,VWS V14.01,2013-05-21 23:16:00,
2013-05-21 19:22:00,60.1,48.7,29.74,North,0,6.7,10.5,66,0.00,,,0.00,VWS V14.01,2013-05-21 23:22:00,
2013-05-21 19:27:00,59.5,48.2,29.74,ENE,57,5.8,10.5,66,0.00,,,0.00,VWS V14.01,2013-05-21 23:27:00,
2013-05-21 19:32:00,59.2,48.2,29.74,North,0,5.3,10.5,67,0.00,,,0.00,VWS V14.01,2013-05-21 23:32:00,
2013-05-21 19:37:00,58.8,47.9,29.77,NNE,32,7.6,12.3,67,0.00,,,0.00,VWS V14.01,2013-05-21 23:37:00,
2013-05-21 19:42:00,58.6,48.1,29.77,NNW,342,6.7,12.3,68,0.00,,,0.00,VWS V14.01,2013-05-21 23:42:00,
2013-05-21 19:47:00,58.3,47.8,29.77,NNE,12,7.6,12.3,68,0.00,,,0.00,VWS V14.01,2013-05-21 23:47:00,
2013-05-21 19:52:00,58.1,48.0,29.77,ENE,60,4.4,12.3,69,0.00,,,0.00,VWS V14.01,2013-05-21 23:52:00,
2013-05-21 19:57:00,58.1,48.0,29.77,ENE,73,7.1,12.3,69,0.00,,,0.00,VWS V14.01,2013-05-21 23:57:00,
2013-05-21 20:00:00,61.2,49.7,29.74,ENE,71,5.3,11.4,66,0.00,,,0.00,VWS V15.00,2013-05-22 00:00:00,
2013-05-21 20:02:00,57.9,48.2,29.77,ENE,70,7.1,7.1,70,0.00,,,0.00,VWS V14.01,2013-05-22 00:02:00,
2013-05-21 20:07:00,57.7,48.0,29.77,East,91,4.4,8.5,70,0.00,,,0.00,VWS V14.01,2013-05-22 00:07:00,
2013-05-21 20:12:00,57.6,47.9,29.77,ENE,60,4.4,9.4,70,0.00,,,0.00,VWS V14.01,2013-05-22 00:12:00,
2013-05-21 20:17:00,57.6,48.2,29.77,NNE,32,4.4,9.4,71,0.00,,,0.00,VWS V14.01,2013-05-22 00:17:00,
2013-05-21 20:22:00,57.4,48.4,29.77,NNW,338,5.8,9.8,72,0.00,,,0.00,VWS V14.01,2013-05-22 00:22:00,
2013-05-21 20:27:00,57.2,48.3,29.77,East,87,4.4,9.8,72,0.00,,,0.00,VWS V14.01,2013-05-22 00:27:00,
2013-05-21 20:32:00,57.4,48.8,29.77,East,81,4.9,9.8,73,0.00,,,0.00,VWS V14.01,2013-05-22 00:32:00,
2013-05-21 20:37:00,57.4,48.8,29.74,East,86,4.9,9.8,73,0.00,,,0.00,VWS V14.01,2013-05-22 00:37:00,
2013-05-21 20:42:00,57.6,49.0,29.74,ENE,73,5.8,9.8,73,0.00,,,0.00,VWS V14.01,2013-05-22 00:42:00,
2013-05-21 20:47:00,57.6,49.0,29.74,NE,46,4.4,9.8,73,0.00,,,0.00,VWS V14.01,2013-05-22 00:47:00,
2013-05-21 20:52:00,57.6,49.0,29.74,ESE,120,5.3,9.8,73,0.00,,,0.00,VWS V14.01,2013-05-22 00:52:00,
2013-05-21 20:57:00,57.6,49.0,29.74,ENE,61,7.1,9.8,73,0.00,,,0.00,VWS V14.01,2013-05-22 00:57:00,
2013-05-21 21:00:00,58.1,48.0,29.77,NE,35,5.3,12.3,69,0.00,,,0.00,VWS V15.00,2013-05-22 01:00:00,
2013-05-21 21:02:00,57.6,49.0,29.74,SE,134,4.0,7.6,73,0.00,,,0.00,VWS V14.01,2013-05-22 01:02:00,
2013-05-21 21:07:00,57.4,48.8,29.74,ESE,120,5.3,8.0,73,0.00,,,0.00,VWS V14.01,2013-05-22 01:07:00,
2013-05-21 21:12:00,57.4,49.2,29.74,ESE,102,7.1,8.0,74,0.00,,,0.00,VWS V14.01,2013-05-22 01:12:00,
2013-05-21 21:17:00,57.2,49.0,29.74,East,85,4.4,8.0,74,0.00,,,0.00,VWS V14.01,2013-05-22 01:17:00,
2013-05-21 21:22:00,57.2,49.0,29.74,East,96,5.3,8.0,74,0.00,,,0.00,VWS V14.01,2013-05-22 01:22:00,
2013-05-21 21:27:00,56.8,49.0,29.74,NE,36,8.0,10.5,75,0.00,,,0.00,VWS V14.01,2013-05-22 01:27:00,
2013-05-21 21:32:00,56.7,48.8,29.74,NW,316,5.8,12.7,75,0.00,,,0.00,VWS V14.01,2013-05-22 01:32:00,
2013-05-21 21:37:00,56.3,48.5,29.77,NNE,19,4.9,12.7,75,0.00,,,0.00,VWS V14.01,2013-05-22 01:37:00,
2013-05-21 21:42:00,55.9,48.1,29.77,NW,325,4.9,12.7,75,0.00,,,0.00,VWS V14.01,2013-05-22 01:42:00,
2013-05-21 21:47:00,55.8,48.3,29.77,NNE,32,1.8,12.7,76,0.00,,,0.00,VWS V14.01,2013-05-22 01:47:00,
2013-05-21 21:52:00,55.8,48.3,29.74,ESE,102,1.8,12.7,76,0.00,,,0.00,VWS V14.01,2013-05-22 01:52:00,
2013-05-21 21:57:00,55.9,48.5,29.74,ESE,104,1.8,12.7,76,0.00,,,0.00,VWS V14.01,2013-05-22 01:57:00,
2013-05-21 22:00:00,57.6,49.0,29.74,ENE,66,5.8,10.0,73,0.00,,,0.00,VWS V15.00,2013-05-22 02:00:00,
2013-05-21 22:02:00,55.9,48.5,29.74,SE,126,1.8,1.8,76,0.00,,,0.00,VWS V14.01,2013-05-22 02:02:00,
2013-05-21 22:07:00,55.9,48.5,29.74,ESE,114,4.9,5.3,76,0.00,,,0.00,VWS V14.01,2013-05-22 02:07:00,
2013-05-21 22:12:00,55.9,48.5,29.74,ESE,112,1.8,5.3,76,0.00,,,0.00,VWS V14.01,2013-05-22 02:12:00,
2013-05-21 22:17:00,55.9,48.5,29.74,NE,52,4.0,5.8,76,0.00,,,0.00,VWS V14.01,2013-05-22 02:17:00,
2013-05-21 22:22:00,55.9,48.5,29.74,ENE,60,5.8,8.0,76,0.00,,,0.00,VWS V14.01,2013-05-22 02:22:00,
2013-05-21 22:27:00,55.9,48.5,29.74,East,85,5.8,8.0,76,0.00,,,0.00,VWS V14.01,2013-05-22 02:27:00,
2013-05-21 22:32:00,55.9,48.8,29.74,East,82,5.3,8.0,77,0.00,,,0.00,VWS V14.01,2013-05-22 02:32:00,
2013-05-21 22:37:00,55.9,48.8,29.74,East,83,5.3,9.4,77,0.00,,,0.00,VWS V14.01,2013-05-22 02:37:00,
2013-05-21 22:42:00,55.9,48.8,29.74,NE,35,7.1,9.4,77,0.00,,,0.00,VWS V14.01,2013-05-22 02:42:00,
2013-05-21 22:47:00,55.8,48.7,29.74,ESE,106,6.7,9.4,77,0.00,,,0.00,VWS V14.01,2013-05-22 02:47:00,
2013-05-21 22:52:00,55.8,49.0,29.77,North,353,4.9,9.4,78,0.00,,,0.00,VWS V14.01,2013-05-22 02:52:00,
2013-05-21 22:57:00,55.6,48.8,29.77,North,0,4.4,9.8,78,0.00,,,0.00,VWS V14.01,2013-05-22 02:57:00,
2013-05-21 23:00:00,55.9,48.5,29.74,SE,126,1.8,12.7,76,0.00,,,0.00,VWS V15.00,2013-05-22 03:00:00,
2013-05-21 23:02:00,55.6,48.8,29.77,NNE,24,5.8,8.0,78,0.00,,,0.00,VWS V14.01,2013-05-22 03:02:00,
2013-05-21 23:07:00,55.6,49.2,29.74,NE,56,7.1,8.5,79,0.00,,,0.00,VWS V14.01,2013-05-22 03:07:00,
2013-05-21 23:12:00,55.6,49.2,29.74,East,86,4.9,9.4,79,0.00,,,0.00,VWS V14.01,2013-05-22 03:12:00,
2013-05-21 23:17:00,55.4,49.0,29.74,NNE,29,7.1,9.4,79,0.00,,,0.00,VWS V14.01,2013-05-22 03:17:00,
2013-05-21 23:22:00,55.4,49.3,29.74,NNE,15,4.4,9.4,80,0.00,,,0.00,VWS V14.01,2013-05-22 03:22:00,
2013-05-21 23:27:00,55.2,49.2,29.74,North,0,5.3,9.4,80,0.00,,,0.00,VWS V14.01,2013-05-22 03:27:00,
2013-05-21 23:32:00,55.0,49.0,29.74,North,353,7.6,10.0,80,0.00,,,0.00,VWS V14.01,2013-05-22 03:32:00,
2013-05-21 23:37:00,55.0,49.0,29.77,ENE,78,6.7,10.0,80,0.00,,,0.00,VWS V14.01,2013-05-22 03:37:00,
2013-05-21 23:42:00,55.0,49.0,29.77,ENE,58,9.8,10.0,80,0.00,,,0.00,VWS V14.01,2013-05-22 03:42:00,
2013-05-21 23:47:00,54.9,48.8,29.77,ENE,61,1.8,10.0,80,0.00,,,0.00,VWS V14.01,2013-05-22 03:47:00,
2013-05-21 23:52:00,54.9,49.2,29.74,East,93,7.1,10.0,81,0.00,,,0.00,VWS V14.01,2013-05-22 03:52:00,
2013-05-21 23:57:00,55.0,49.3,29.74,NE,55,5.8,10.0,81,0.00,,,0.00,VWS V14.01,2013-05-22 03:57:00,